Location: Northam
(31.6525°S, 116.6655°E)
Time: 08:09:41
(UTC+08:00)

N. Korean satellite - Pass Details

Date: 23 May 2021
Orbit: 450 x 500 km, 97.2° (Epoch: 13 June)

Event Time Altitude Azimuth Distance (km) Brightness Sun altitude
Rises 18:17:25 0° 188° (S) 2,628 10.2 -12.2°
Reaches altitude 10° 18:20:00 10° 207° (SSW) 1,731 9.5 -12.7°
Maximum altitude 18:22:36 18° 251° (WSW) 1,283 9.5 -13.2°
Drops below altitude 10° 18:25:10 10° 296° (WNW) 1,702 10.7 -13.7°
Sets 18:27:41 0° 315° (NW) 2,567 11.4 -14.3°
